Lid_Strength_Index
1 4 5 5 7 7 8 7 5 6 6 5 5 5 5 5 6 9 1 0 -0 -0 -1 -1 -1 -1 -1 -1 -1 -1 -1 -1 -1 -1 -1 -1 -1 -1 -1 -1 -1 -1 -1 -1 -1 -1 -1 -1 -1
2 4 5 5 8 10 9 6 7 5 4 4 5 5 5 6 4 3 2 0 -0 -0 -1 -1 -1 -1 -1 -1 -1 -1 -1 -1 -1 -1 -1 -1 -1 -1 -1 -1 -1 -1 -1 -1 -1 -1 -1 -1 -1
3 3 6 7 8 10 9 6 6 4 4 5 5 5 4 6 3 3 1 -0 -0 -0 -1 -1 -1 -1 -1 -1 -1 -1 -1 -1 -1 -1 -1 -1 -1 -1 -1 -1 -1 -1 -1 -1 -1 -1 -1 -1 -1
4 4 5 9 9 7 6 5 6 5 4 3 5 6 3 2 3 1 0 -0 -0 -0 -1 -1 -1 -1 -1 -1 -1 -1 -1 -1 -1 -1 -1 -1 -1 -1 -1 -1 -1 -1 -1 -1 -1 -1 -1 -1 -1
4 5 9 10 9 7 5 5 5 6 5 4 4 5 6 2 1 1 0 -0 0 -0 -1 -1 -1 -1 -1 -1 -1 -1 -1 -1 -1 -1 -1 -1 -1 -1 -1 -1 -1 -1 -1 -1 -1 -1 -1 -1 -1
7 7 10 11 9 7 6 5 5 5 5 5 4 4 4 2 2 1 0 0 -0 -0 -1 -1 -1 -1 -1 -1 -1 -1 -1 -1 -1 -1 -1 -1 -1 -1 -1 -1 -1 -1 -1 -1 -1 -1 -1 -1 -1
7 8 10 9 9 8 7 5 5 5 6 6 4 5 4 3 1 1 0 -0 -0 -1 -1 -1 -1 -1 -1 -1 -1 -1 -1 -1 -1 -1 -1 -1 -1 -1 -1 -1 -1 -1 -1 -1 -1 -1 -1 -1 -1
7 7 9 8 9 9 7 7 6 6 7 6 6 7 5 3 1 1 0 0 -0 -0 -0 -1 -1 -1 -1 -2 -1 -1 -1 -1 -1 -1 -1 -1 -1 -1 -1 -1 -1 -1 -1 -1 -1 -1 -1 -1 -1
5 9 10 8 9 8 7 7 6 5 6 6 5 4 2 2 1 1 1 1 1 0 -0 -1 -1 -1 -1 -1 -1 -1 -1 -1 -1 -1 -1 -1 -2 -2 -2 -2 -2 -1 -1 -1 -1 -1 -1 -1 -1
8 9 8 6 6 7 7 7 7 7 6 6 6 4 2 2 2 3 3 2 2 1 0 -0 -1 -1 -1 -1 -2 -2 -2 -2 -2 -2 -2 -2 -2 -2 -2 -2 -1 -1 -1 -1 -1 -1 -1 -1 -1
8 9 7 7 6 6 6 7 7 7 7 6 6 5 3 3 3 3 3 2 2 1 0 -0 -1 -1 -1 -1 -1 -1 -1 -1 -2 -2 -2 -2 -2 -2 -1 -1 -1 -2 -1 -1 -1 -1 -2 -2 -1
9 7 7 6 7 7 7 6 7 7 6 5 5 5 2 3 3 3 3 2 2 1 1 -0 -1 -1 -1 -1 -1 -1 -1 -1 -1 -1 -2 -1 -1 -1 -1 -1 -1 -2 -2 -2 -2 -1 -2 -2 -2
9 8 7 7 7 7 6 7 7 7 6 5 5 5 4 2 2 2 2 1 1 1 1 0 -0 -0 -1 -1 -1 -1 -1 -1 -1 -1 -2 -1 -1 -1 -1 -1 -1 -1 -1 -1 -1 -1 -1 -1 -1
8 8 8 7 7 7 8 8 7 7 6 7 6 6 5 3 3 2 2 2 2 1 1 0 -0 -1 -1 -0 -1 -1 -1 -1 -1 -1 -1 -1 -1 -1 -1 -1 -1 -1 -1 -1 -1 -1 -1 -1 -1
8 10 8 8 8 8 7 9 9 7 6 6 6 6 5 3 3 2 2 2 1 1 0 0 -0 -0 -0 -0 -0 -1 -1 -1 -1 -1 -1 -2 -2 -1 -1 -1 -1 -1 -2 -1 -1 -1 -1 -0 -1
10 9 11 8 8 7 8 10 7 6 6 7 6 5 5 4 2 1 2 1 1 1 1 0 -0 -0 -0 -0 -0 -0 -1 -1 -1 -1 -1 -1 -1 -2 -1 -1 -1 -1 -1 -1 -0 -0 -0 -0 -0
10 12 12 10 8 8 9 10 7 6 6 6 6 6 5 4 2 1 1 1 1 1 1 1 0 0 -0 -1 -0 -1 -1 -0 -1 -1 -1 -1 -1 -1 -1 -1 -1 -1 -0 -0 -0 -0 -0 1 1
12 12 10 11 9 9 9 9 7 6 6 6 6 6 5 4 2 2 1 1 1 1 0 0 0 -0 -0 0 -0 -0 -0 -0 -1 -1 -1 -1 -1 -1 -1 -1 -1 -1 -0 -0 -0 -0 -0 0 1
9 10 11 10 8 9 9 9 7 6 6 6 6 5 5 4 2 1 1 1 1 1 1 0 1 0 0 1 1 1 1 0 -0 -1 -1 -1 -1 -1 -1 -1 -1 -1 -0 -0 -0 0 0 1 0
9 10 11 9 9 9 9 9 8 7 7 6 6 5 5 4 2 2 2 2 2 1 1 1 1 0 0 1 0 0 0 0 -0 -1 -1 -1 -1 -1 -1 -1 -0 -1 -0 -0 -0 0 1 1 0
9 10 10 10 9 9 9 10 9 7 7 6 5 5 4 4 4 2 2 2 2 2 1 1 1 0 0 -0 0 0 0 -0 1 0 0 -1 -1 -1 -1 -1 -0 -0 -0 0 0 0 1 2 1
11 7 9 10 11 13 9 13 10 8 8 7 6 5 5 4 3 2 2 2 2 2 1 1 1 0 0 -0 0 1 2 2 1 -0 -0 -1 -1 -1 -1 -1 -0 -0 -0 0 0 0 1 1 2
9 7 8 9 11 10 11 12 10 8 9 8 7 6 5 4 4 3 3 1 1 1 1 1 0 0 0 -0 -0 1 1 1 1 0 0 -0 -0 -1 -1 -1 -1 -0 -0 -0 0 0 1 0 1
6 8 8 8 10 14 12 12 11 10 9 8 7 5 4 3 3 2 2 2 2 1 1 1 1 1 0 0 0 1 1 1 1 1 1 1 -0 -0 -1 -1 -1 -1 -1 -1 -0 -0 -0 1 1
8 10 15 15 14 14 10 12 9 8 7 7 6 5 5 4 3 3 3 3 2 2 2 1 1 2 1 0 0 0 1 1 1 1 1 0 1 0 0 -1 -0 -0 -0 -1 -1 -0 -0 -0 0
10 10 13 17 16 13 10 13 10 7 7 6 6 6 5 4 3 4 3 3 3 2 2 1 1 1 1 1 1 0 -0 0 0 0 0 1 1 1 0 1 1 1 1 2 1 1 1 0 0
10 12 7 11 10 12 12 10 9 8 9 8 8 7 7 6 5 4 3 3 2 2 2 2 1 1 1 1 0 0 -0 -0 1 0 1 2 1 2 1 1 1 1 1 2 2 3 2 2 2
8 7 12 10 15 15 13 12 11 11 11 9 9 8 7 6 5 4 4 3 3 2 2 1 1 1 1 0 0 0 1 1 1 1 2 1 1 1 1 1 1 1 1 0 0 2 1 2 3
10 10 9 9 10 14 15 12 7 9 10 10 9 7 6 6 5 4 4 3 2 1 1 2 2 2 2 2 1 2 2 2 2 2 1 1 1 1 1 1 1 1 1 1 0 0 1 2 1
7 9 9 12 13 11 12 15 7 8 9 8 8 7 6 5 4 4 3 3 3 3 3 3 3 3 3 3 3 3 2 2 2 2 1 1 1 1 1 1 1 1 1 1 1 2 1 1 1